Location: Unspecified
(0.0000°N, 0.0000°E)
Time: 16:18:51
(UTC+00:00)

Vanguard 2 - Pass Details

Date: 21 November 2019
Orbit: 553 x 2938 km, 32.9° (Epoch: 13 December)

Event Time Altitude Azimuth Distance (km) Brightness Sun altitude
Rises 22:05:56 0° 213° (SSW) 5,053 12.2 -58.4°
Reaches altitude 10° 22:13:16 10° 182° (S) 4,714 11.7 -59.8°
Maximum altitude 22:17:06 11° 165° (SSE) 4,877 11.7 -60.5°
Drops below altitude 10° 22:21:18 10° 149° (SSE) 5,265 11.8 -61.2°
Sets 22:31:26 0° 120° (ESE) 6,699 12.3 -62.9°
